Regional Weather Roundup
Issued by NWS

Home | Current Version | Previous Version | Graphics & Text | Print | Product List | Glossary On
Versions: 1 2 3 4 5 6 7 8 9 10 11 12 13 14 15 16 17 18 19 20 21 22 23 24 25 26 27 28 29 30 31 32 33 34 35 36 37 38 39 40 41 42 43 44 45 46 47 48 49 50
000
ASUS43 KFSD 260402
RWRSD

WEATHER ROUNDUP FOR SOUTH DAKOTA
NATIONAL WEATHER SERVICE SIOUX FALLS SD
1100 PM CDT SAT APR 25 2015

NOTE: "FAIR" INDICATES FEW OR NO CLOUDS BELOW 12,000 FEET WITH NO
SIGNIFICANT WEATHER AND/OR OBSTRUCTIONS TO VISIBILITY.


SDZ001>005-009-010-012>017-260500-
NORTHWEST AND NORTH CENTRAL SOUTH DAKOTA

CITY           SKY/WX    TMP DP  RH WIND       PRES   REMARKS
BUFFALO          N/A     43  41  93 W9        29.84R
FAITH            N/A     49  46  90 NE8       29.87R
MOBRIDGE       CLOUDY    51  41  68 E13       29.88R
$$

SDZ012>016-024>037-041>051-057-063-072>074-260500-
SOUTHWEST AND SOUTH CENTRAL SOUTH DAKOTA

CITY           SKY/WX    TMP DP  RH WIND       PRES   REMARKS
RAPID CTY ARPT CLOUDY    47  43  86 N14       29.87R
PIERRE         CLOUDY    52  46  80 SE8       29.88R
CUSTER         CLOUDY    43  41  93 NE12      29.87S
ELLSWORTH AFB  CLOUDY    46  44  93 N16       29.86
PHILIP         CLOUDY    54  46  74 SE9       29.84R
PINE RIDGE     CLOUDY    50  46  86 SW6       29.82R
WINNER         CLOUDY    54  45  71 E9        29.87S
$$

SDZ004>011-016>023-039-040-260500-
NORTHEAST SOUTH DAKOTA

CITY           SKY/WX    TMP DP  RH WIND       PRES   REMARKS
ABERDEEN       CLOUDY    51  42  71 E5        29.94R
WATERTOWN      CLOUDY    50  41  71 E9        29.93R
BROOKINGS      MOCLDY    46  39  76 SE7       29.95R
SISSETON         N/A     48  42  80 E3        29.95S
$$

SDZ017-020-022-023-036>040-048>070-260500-
SOUTHEAST SOUTH DAKOTA

CITY           SKY/WX    TMP DP  RH WIND       PRES   REMARKS
SIOUX FALLS    MOCLDY    50  39  66 E9        29.93R
HURON          CLOUDY    53  43  68 E8        29.92R
MITCHELL       CLOUDY    54  44  69 E12       29.93R
YANKTON        CLOUDY    54  39  58 E12G18    29.91R
$$

ABBREVIATIONS USED IN REMARKS
   TC - TEMPERATURE IN CELSIUS
  WCI - WIND CHILL INDEX
   HX - HEAT INDEX
  VSB - VISIBILITY



USA.gov is the U.S. government's official web portal to all federal, state and local government web resources and services.